Terug naar catalogus

THORAD AGENA D DEB

ActiefSSO
NORAD 5690·DEBRIS·🇺🇸 United States

Gelanceerd Apr 8, 1970 vanaf Vandenberg Space Force Base

Loading…

Volgende Passages (komende 24 uur)

TLE

VersSource: Space-Track

Epoch: Sep 14, 2026, 12:45 UTC

1 05690U 70025LV  26257.53187574  .00000037  00000-0  12839-3 0  9992
2 05690 100.1913 275.2004 0048535 218.6876 295.9083 13.51641499778450

Volg THORAD AGENA D DEB in realtime met AllMySat

Download on the App Store